[[{"header":{"parameterUnit":"m.s-1","parameterCategory":1,"la1":30.2991,"la2":30.254,"lo1":-89.0895,"lo2":-89.0444,"dy":0.0017,"dx":0.0017,"nx":28,"ny":28,"refTime":"2025-05-23T03:00:00:Z","depth":0,"parameterNumber":2,"parameterNumberName":"U-component_of_WINDS"},"data":[0,0,0,0,0,0,0,0,0,0,0,0,0,0,0,0,0,0,0,0,0,0,0,0,0,0,0,0,0,0,0,0,0,0,0,0,0,0,0,0,0,0,0,0,0,0,0,0,0,0,0,0,0,0,0,0,0,0,-1.0568,-1.0568,0,-1.0546,-1.0545,-1.0545,-1.0505,-1.0504,-1.0504,-1.0503,-1.048,-1.048,-1.048,0,0,0,0,0,0,0,0,0,0,0,0,0,-1.0577,-1.0577,-1.0568,-1.0568,-1.0567,-1.0546,-1.0545,-1.0545,-1.0505,-1.0504,-1.0503,-1.0503,-1.048,-1.048,-1.048,0,0,0,0,0,0,0,0,0,0,0,0,0,-1.0565,-1.0577,-1.0568,-1.0545,-1.0543,-1.0546,-1.0545,-1.0545,-1.0506,-1.0504,-1.0503,-1.0502,-1.048,-1.048,-1.048,-1.0504,0,0,-1.0481,-1.0481,0,0,0,0,0,0,0,0,-1.0566,-1.0565,-1.0549,-1.0547,-1.0544,-1.0527,-1.054,-1.0531,-1.0506,-1.052,-1.0503,-1.0502,-1.0497,-1.0495,-1.0494,-1.0503,-1.0502,-1.0481,-1.0481,-1.0481,-1.0481,0,0,0,0,0,0,0,-1.0567,-1.0566,-1.0559,-1.0548,-1.0546,-1.0536,-1.0533,-1.0538,-1.0515,-1.0518,-1.0515,-1.0513,-1.0495,-1.0494,-1.0493,-1.0502,-1.0481,-1.0481,-1.0481,-1.0481,-1.053,-1.0531,0,0,0,0,0,0,-1.0571,-1.0567,-1.056,-1.0558,-1.0552,-1.0537,-1.0533,-1.0534,-1.0515,-1.0511,-1.0514,-1.0512,-1.0494,-1.0493,-1.0492,-1.0519,-1.0481,-1.0481,-1.0481,-1.0529,-1.0531,-1.0532,0,0,0,0,0,0,-1.0571,-1.0571,-1.0561,-1.0562,-1.056,-1.0538,-1.0538,-1.0534,-1.0532,-1.0512,-1.0507,-1.0517,-1.0493,-1.0492,-1.0502,-1.0517,-1.0481,-1.0481,-1.0528,-1.053,-1.0531,-1.0572,0,0,0,0,0,0,-1.0572,-1.0571,-1.058,-1.0562,-1.056,-1.0571,-1.0539,-1.0534,-1.0533,-1.0529,-1.0513,-1.0509,-1.0492,-1.0502,-1.0502,-1.0517,-1.0481,-1.0526,-1.0529,-1.0531,-1.057,-1.0575,-1.0581,0,0,0,0,0,-1.0572,-1.0592,-1.058,-1.058,-1.057,-1.0572,-1.057,-1.055,-1.0534,-1.0543,-1.053,-1.051,-1.0516,-1.0503,-1.0503,-1.0518,-1.0525,-1.0528,-1.053,-1.0567,-1.0574,-1.058,0,0,0,0,0,0,-1.0612,-1.0589,-1.0576,-1.0591,-1.0584,-1.0565,-1.0575,-1.0558,-1.0555,-1.0552,-1.0527,-1.0523,-1.0537,-1.0528,-1.0514,-1.0541,-1.0517,-1.052,-1.0545,-1.0552,-1.0557,-1.0559,-1.0482,0,0,0,0,0,-1.0622,-1.0625,-1.0605,-1.062,-1.0617,-1.0597,-1.0597,-1.0582,-1.0573,-1.057,-1.0558,-1.055,-1.055,-1.0551,-1.055,-1.0569,-1.0565,-1.0579,-1.0585,-1.0589,-1.0592,-1.0602,-1.0608,-1.0541,-1.0541,-1.0541,0,0,-1.0644,-1.0632,-1.0635,-1.0628,-1.0621,-1.0624,-1.0595,-1.06,-1.0602,-1.0571,-1.0579,-1.057,-1.056,-1.0575,-1.058,-1.0568,-1.061,-1.0593,-1.0597,-1.0597,-1.0605,-1.0611,-1.0617,-1.0543,-1.0542,-1.0542,0,0,-1.0685,-1.0676,-1.0688,-1.0681,-1.067,-1.0657,-1.066,-1.0644,-1.0637,-1.0645,-1.0621,-1.0624,-1.0625,-1.0619,-1.0616,-1.0656,-1.0638,-1.0657,-1.0685,-1.0695,-1.07,-1.0705,-1.0719,-1.0724,-1.066,-1.066,-1.066,0,-1.0713,-1.0717,-1.0696,-1.0702,-1.07,-1.0672,-1.0684,-1.0679,-1.0668,-1.0668,-1.0654,-1.0655,-1.0646,-1.0659,-1.0669,-1.0668,-1.0671,-1.0658,-1.0701,-1.0705,-1.0709,-1.0723,-1.0728,-1.0662,-1.0662,-1.0661,-1.0661,0,-1.0752,-1.0756,-1.0767,-1.0757,-1.0756,-1.0766,-1.0746,-1.0748,-1.0734,-1.0722,-1.0731,-1.072,-1.0716,-1.0718,-1.0704,-1.073,-1.0722,-1.0706,-1.0681,-1.0718,-1.073,-1.0735,-1.0665,-1.0664,-1.0664,-1.0663,0,0,-1.0816,-1.0796,-1.08,-1.0796,-1.0782,-1.0785,-1.0793,-1.079,-1.0792,-1.0786,-1.0793,-1.0795,-1.0779,-1.0776,-1.0761,-1.077,-1.0803,-1.0752,-1.0751,-1.0762,-1.083,-1.0842,-1.0849,-1.0791,-1.0792,-1.0793,-1.0831,0,-1.0854,-1.0866,-1.0848,-1.0865,-1.0868,-1.0843,-1.085,-1.0843,-1.0833,-1.0834,-1.0823,-1.0824,-1.0804,-1.0802,-1.0809,-1.0797,-1.0816,-1.0794,-1.0797,-1.0797,-1.0799,-1.0855,-1.0868,-1.0904,-1.0835,-1.0836,-1.0837,0,-1.0899,-1.0895,-1.0913,-1.0899,-1.09,-1.0907,-1.0903,-1.0905,-1.0896,-1.0888,-1.0885,-1.0868,-1.0876,-1.0853,-1.0864,-1.0849,-1.0849,-1.0844,-1.0845,-1.0844,-1.0819,-1.0855,-1.0915,-1.0921,-1.0844,-1.0844,-1.0843,0,-1.0943,-1.0943,-1.0954,-1.0951,-1.0935,-1.0941,-1.0935,-1.0925,-1.0925,-1.0922,-1.0921,-1.0919,-1.0917,-1.0916,-1.0899,-1.0884,-1.0912,-1.0888,-1.0905,-1.0906,-1.0911,-1.0911,-1.0972,-1.0912,-1.0912,-1.0912,-1.0912,0,-1.0987,-1.0998,-1.0974,-1.098,-1.0993,-1.0972,-1.0985,-1.0976,-1.0968,-1.0973,-1.0951,-1.0956,-1.0933,-1.0935,-1.0922,-1.0933,-1.0933,-1.0926,-1.0922,-1.0928,-1.0929,-1.0927,-1.0924,-1.0914,-1.0913,-1.0913,-1.0913,0,-1.1038,-1.1022,-1.1032,-1.1016,-1.1013,-1.1023,-1.101,-1.1015,-1.1004,-1.101,-1.101,-1.0993,-1.0995,-1.0978,-1.0976,-1.0967,-1.0984,-1.0976,-1.0987,-1.0984,-1.1002,-1.1001,-1.1064,-1.1071,-1.1008,-1.1008,-1.1009,0,-1.1066,-1.1075,-1.1061,-1.1062,-1.1057,-1.106,-1.106,-1.104,-1.104,-1.1032,-1.1039,-1.1039,-1.1038,-1.1043,-1.103,-1.1029,-1.102,-1.1043,-1.102,-1.1025,-1.102,-1.102,-1.102,-1.1047,-1.1048,-1.1049,-1.1049,0,-1.1119,-1.111,-1.1111,-1.1108,-1.1109,-1.1106,-1.1102,-1.1104,-1.1083,-1.1085,-1.1087,-1.1086,-1.1085,-1.1086,-1.1082,-1.1076,-1.1059,-1.1057,-1.106,-1.1066,-1.1071,-1.1068,-1.0999,-1.1055,-1.1054,-1.1054,-1.1054,-1.1053,-1.1159,-1.1165,-1.1157,-1.1158,-1.1153,-1.115,-1.1154,-1.1144,-1.1145,-1.1143,-1.1131,-1.1135,-1.1128,-1.1122,-1.1117,-1.112,-1.1109,-1.1115,-1.1116,-1.1118,-1.1121,-1.1072,-1.112,-1.112,-1.1119,-1.1119,-1.1119,0,-1.121,-1.1203,-1.1204,-1.1199,-1.1201,-1.1185,-1.118,-1.1182,-1.1186,-1.118,-1.118,-1.1183,-1.1183,-1.1171,-1.117,-1.1175,-1.1167,-1.1176,-1.1175,-1.1174,-1.1131,-1.1128,-1.1182,-1.1182,-1.1182,-1.1182,-1.1182,-1.1182,-1.1236,-1.1246,-1.1237,-1.1245,-1.1238,-1.1242,-1.1241,-1.1238,-1.1233,-1.1237,-1.1238,-1.123,-1.1222,-1.122,-1.1221,-1.1217,-1.1218,-1.1228,-1.1222,-1.1183,-1.1176,-1.1171,-1.1167,-1.1229,-1.1229,-1.1264,-1.1265,-1.1265]},{"header":{"parameterUnit":"m.s-1","parameterCategory":1,"la1":30.2991,"la2":30.254,"lo1":-89.0895,"lo2":-89.0444,"dy":0.0017,"dx":0.0017,"nx":28,"ny":28,"refTime":"2025-05-23T03:00:00:Z","depth":0,"parameterNumber":3,"parameterNumberName":"V-component_of_WINDS"},"data":[0,0,0,0,0,0,0,0,0,0,0,0,0,0,0,0,0,0,0,0,0,0,0,0,0,0,0,0,0,0,0,0,0,0,0,0,0,0,0,0,0,0,0,0,0,0,0,0,0,0,0,0,0,0,0,0,0,0,0.9275,0.9275,0,0.9301,0.9301,0.9301,0.9328,0.9329,0.9329,0.9329,0.9355,0.9355,0.9355,0,0,0,0,0,0,0,0,0,0,0,0,0,0.925,0.925,0.9275,0.9275,0.9276,0.93,0.9301,0.9301,0.9328,0.9329,0.9329,0.933,0.9355,0.9355,0.9355,0,0,0,0,0,0,0,0,0,0,0,0,0,0.9266,0.925,0.9275,0.9292,0.9294,0.93,0.9301,0.9301,0.9328,0.9329,0.9329,0.933,0.9354,0.9355,0.9355,0.9347,0,0,0.9357,0.9357,0,0,0,0,0,0,0,0,0.9265,0.9267,0.9289,0.9291,0.9293,0.9312,0.9301,0.9317,0.9328,0.9315,0.9329,0.933,0.934,0.9342,0.9345,0.9348,0.9349,0.9357,0.9357,0.9357,0.9358,0,0,0,0,0,0,0,0.9264,0.9266,0.9285,0.929,0.9292,0.9299,0.9302,0.9304,0.9324,0.9316,0.9318,0.9321,0.9341,0.9345,0.9346,0.9349,0.9357,0.9357,0.9358,0.9358,0.9347,0.9347,0,0,0,0,0,0,0.9261,0.9265,0.9284,0.9286,0.928,0.9299,0.9302,0.9305,0.9324,0.9327,0.932,0.9322,0.9343,0.9345,0.9347,0.9338,0.9357,0.9358,0.9358,0.9348,0.9347,0.9347,0,0,0,0,0,0,0.926,0.9262,0.9283,0.9276,0.9279,0.9298,0.9302,0.9305,0.9309,0.9327,0.9331,0.932,0.9344,0.9346,0.9347,0.934,0.9358,0.9358,0.9349,0.9348,0.9347,0.9321,0,0,0,0,0,0,0.9259,0.9262,0.9258,0.9276,0.928,0.9283,0.9301,0.9305,0.931,0.9312,0.9328,0.9331,0.9345,0.9346,0.9347,0.9341,0.9359,0.9349,0.9348,0.9347,0.9323,0.9319,0.9317,0,0,0,0,0,0.9258,0.925,0.9258,0.926,0.9276,0.9282,0.9284,0.93,0.9309,0.9306,0.9318,0.9331,0.934,0.9346,0.9348,0.9341,0.935,0.9349,0.9347,0.9324,0.932,0.9317,0,0,0,0,0,0,0.923,0.9252,0.9262,0.9259,0.9269,0.9287,0.9283,0.9295,0.9302,0.9304,0.9323,0.9327,0.9325,0.9333,0.9339,0.9334,0.9347,0.9346,0.9329,0.9325,0.9322,0.932,0.9359,0,0,0,0,0,0.9224,0.9227,0.9246,0.9242,0.9246,0.9264,0.9267,0.9279,0.9289,0.9293,0.9305,0.9315,0.932,0.9323,0.9329,0.9324,0.9328,0.9321,0.9318,0.9315,0.9314,0.9312,0.9309,0.9343,0.9343,0.9343,0,0,0.9211,0.9223,0.9224,0.9237,0.9245,0.9248,0.9267,0.9269,0.9272,0.9294,0.9295,0.9304,0.9316,0.9314,0.9314,0.9321,0.9306,0.9314,0.9311,0.9312,0.9311,0.9308,0.9305,0.9342,0.9342,0.9342,0,0,0.9188,0.9198,0.9195,0.9204,0.9217,0.9229,0.9229,0.9246,0.9253,0.9254,0.9271,0.9274,0.9283,0.9291,0.9296,0.9278,0.929,0.9279,0.9264,0.9262,0.9259,0.9257,0.9251,0.9248,0.9278,0.9278,0.9278,0,0.917,0.9175,0.9193,0.9194,0.9199,0.922,0.9218,0.9225,0.924,0.9243,0.9251,0.9263,0.9272,0.9272,0.9268,0.9272,0.9272,0.9277,0.9258,0.9256,0.9255,0.9249,0.9246,0.9277,0.9277,0.9277,0.9277,0,0.9152,0.9155,0.9152,0.9166,0.9171,0.917,0.9188,0.9191,0.9202,0.9213,0.9215,0.9228,0.9237,0.9238,0.9249,0.924,0.9244,0.9255,0.9268,0.925,0.9244,0.9242,0.9275,0.9275,0.9276,0.9276,0,0,0.9111,0.9136,0.9134,0.9141,0.9158,0.9161,0.9162,0.9171,0.9173,0.9183,0.9184,0.9191,0.9202,0.9208,0.922,0.9218,0.9203,0.9229,0.923,0.9224,0.9195,0.9186,0.9183,0.9212,0.9211,0.9211,0.9194,0,0.9091,0.9094,0.9111,0.9109,0.9112,0.9132,0.9133,0.9144,0.9154,0.9159,0.9171,0.9176,0.9189,0.9193,0.9193,0.9205,0.9198,0.9207,0.9213,0.9213,0.9209,0.9181,0.9172,0.9155,0.9192,0.9192,0.9191,0,0.9068,0.9077,0.9075,0.9093,0.9095,0.9095,0.9105,0.911,0.9122,0.913,0.9137,0.9151,0.9154,0.9167,0.917,0.9176,0.918,0.9186,0.9186,0.9187,0.9201,0.9181,0.915,0.9147,0.9188,0.9189,0.9189,0,0.9039,0.905,0.9051,0.9056,0.9076,0.9076,0.9085,0.9098,0.9103,0.9112,0.9115,0.9124,0.9129,0.9136,0.9152,0.916,0.9153,0.9168,0.916,0.916,0.9157,0.9157,0.9126,0.916,0.916,0.916,0.916,0,0.9014,0.9013,0.9038,0.9038,0.9037,0.9056,0.9055,0.9065,0.9077,0.908,0.9098,0.91,0.9121,0.9126,0.9139,0.914,0.9142,0.9149,0.9152,0.9147,0.9146,0.9149,0.9151,0.916,0.916,0.916,0.916,0,0.8981,0.8998,0.9,0.9019,0.9024,0.9023,0.9039,0.9041,0.9053,0.9056,0.9058,0.9078,0.9084,0.9101,0.9112,0.9121,0.9119,0.9125,0.9115,0.9117,0.9108,0.9109,0.9078,0.9075,0.9111,0.911,0.911,0,0.8964,0.8963,0.8983,0.8986,0.8994,0.8999,0.9005,0.9024,0.9029,0.9043,0.9043,0.9051,0.9059,0.9069,0.9084,0.9092,0.9099,0.9088,0.91,0.9095,0.9099,0.9099,0.9099,0.9085,0.9084,0.9084,0.9083,0,0.8933,0.8941,0.8948,0.8958,0.8964,0.8973,0.8982,0.8984,0.9006,0.901,0.9018,0.9023,0.9035,0.9043,0.9055,0.9064,0.9077,0.908,0.9078,0.9073,0.9067,0.907,0.9107,0.908,0.908,0.9081,0.9081,0.9081,0.8907,0.8907,0.8922,0.8929,0.8938,0.8947,0.895,0.8963,0.8969,0.898,0.8991,0.8998,0.9011,0.9028,0.9036,0.9041,0.9048,0.9046,0.9046,0.9045,0.9043,0.9066,0.9043,0.9043,0.9044,0.9044,0.9044,0,0.8876,0.8887,0.8893,0.8906,0.8912,0.8925,0.8937,0.8941,0.8946,0.8958,0.8965,0.8974,0.8982,0.8998,0.9008,0.9009,0.9016,0.9011,0.9011,0.9013,0.9036,0.9036,0.9006,0.9006,0.9006,0.9006,0.9006,0.9006,0.8861,0.8863,0.8873,0.888,0.889,0.8897,0.8902,0.8911,0.892,0.8929,0.8936,0.8947,0.896,0.8972,0.898,0.8984,0.8987,0.898,0.8987,0.9008,0.9011,0.9015,0.9015,0.8981,0.8981,0.8964,0.8963,0.8963]}]]